User: anonymous   Login
Location: Myra
(43.4160°N, 88.0960°W)
Time: 08:36:47
(UTC-05:00)
Language:

SL-8 R/B - Orbit

View from above orbital plane
View from above orbital plane
View from above satellite
View from above satellite

Ground track
Ground track

The orbit data is extracted from the following two-line orbital elements,

1 33066U 08031G   15185.15013925 -.00000029  00000-0  28052-4 0  9999
2 33066 048.4425 209.6542 0007973 334.6139 057.8837 14.69251446377759
Epoch (UTC): 04 July 2015 03:36:12
Eccentricity: 0.0007973
inclination: 48.4425°
perigee height: 658 km
apogee height: 669 km
right ascension of ascending node: 209.6542°
argument of perigee: 334.6139°
revolutions per day: 14.69251446
mean anomaly at epoch: 57.8837°
orbit number at epoch: 37775

The dashed part of the orbit path shows where the satellite is in the earth's shadow,  

DLR